• In Hungary
  • List of Countries
  • For 7 days
  • Water Temperature
  • Satellite Maps
  • Weather Map
  • News
  • Weather Widgets
  • user-avatar
    Login

    Hourly Weather Brest

    Today, 19 February, Monday

    Time Temperature Precipitation Wind Pressure Humidity
    00:00 -4°C° 0 mm 2 mps 757 mmHg 81%
    01:00 -4°C° 0 mm 2 mps 757 mmHg 82%
    02:00 -3°C° 0 mm 1 mps 757 mmHg 85%
    03:00 -5°C° 0 mm 2 mps 756 mmHg 86%
    04:00 -5°C° 0 mm 2 mps 756 mmHg 86%
    05:00 -5°C° 0 mm 2 mps 756 mmHg 87%
    06:00 -5°C° 0 mm 2 mps 756 mmHg 87%
    07:00 -5°C° 0 mm 2 mps 756 mmHg 88%
    08:00 -5°C° 0 mm 2 mps 756 mmHg 89%
    09:00 -4°C° 0 mm 2 mps 756 mmHg 85%
    10:00 -4°C° 0 mm 3 mps 756 mmHg 82%
    11:00 -1°C° 0 mm 3 mps 756 mmHg 78%
    12:00 -1°C° 0 mm 3 mps 756 mmHg 76%
    13:00 +1°C° 0 mm 2 mps 756 mmHg 73%
    14:00 +1°C° 0 mm 2 mps 756 mmHg 71%
    15:00 +1°C° 0 mm 2 mps 755 mmHg 73%
    16:00 +2°C° 0 mm 1 mps 755 mmHg 75%
    17:00 +1°C° 0 mm 1 mps 755 mmHg 77%
    18:00 +1°C° 0 mm 1 mps 755 mmHg 78%
    19:00 0°C° 0 mm 1 mps 755 mmHg 80%
    20:00 -1°C° 0 mm 0 mps 755 mmHg 82%
    21:00 -1°C° 0 mm 0 mps 755 mmHg 83%
    22:00 -2°C° 0 mm 0 mps 755 mmHg 84%
    23:00 -2°C° 0 mm 0 mps 755 mmHg 85%

    Tomorrow, 20 February, Tuesday

    Time Temperature Precipitation Wind Pressure Humidity
    00:00 -1°C° 0 mm 1 mps 755 mmHg 86%
    01:00 -1°C° 0 mm 1 mps 755 mmHg 87%
    02:00 -1°C° 0 mm 1 mps 755 mmHg 88%
    03:00 -1°C° 0 mm 1 mps 755 mmHg 89%
    04:00 -2°C° 0 mm 1 mps 755 mmHg 90%
    05:00 -2°C° 0 mm 1 mps 755 mmHg 90%
    06:00 -4°C° 0 mm 2 mps 755 mmHg 91%
    07:00 -4°C° 0 mm 2 mps 755 mmHg 91%
    08:00 -4°C° 0 mm 2 mps 755 mmHg 92%
    09:00 -4°C° 0 mm 2 mps 755 mmHg 88%
    10:00 -3°C° 0 mm 2 mps 755 mmHg 83%
    11:00 -2°C° 0 mm 3 mps 755 mmHg 79%
    12:00 -1°C° 0 mm 3 mps 755 mmHg 76%
    13:00 -1°C° 0 mm 3 mps 755 mmHg 73%
    14:00 0°C° 0 mm 3 mps 755 mmHg 71%
    15:00 -1°C° 0 mm 3 mps 755 mmHg 72%
    16:00 -1°C° 0 mm 3 mps 755 mmHg 73%
    17:00 -1°C° 0 mm 3 mps 755 mmHg 75%
    18:00 -2°C° 0 mm 3 mps 755 mmHg 77%
    19:00 -2°C° 0 mm 3 mps 755 mmHg 79%
    20:00 -4°C° 0 mm 3 mps 755 mmHg 82%
    21:00 -4°C° 0 mm 3 mps 755 mmHg 82%
    22:00 -4°C° 0 mm 3 mps 755 mmHg 82%
    23:00 -4°C° 0 mm 3 mps 755 mmHg 82%

    Day after tomorrow, 21 February, Wednesday

    Time Temperature Precipitation Wind Pressure Humidity
    00:00 -4°C° 0 mm 2 mps 755 mmHg 83%
    01:00 -4°C° 0 mm 2 mps 755 mmHg 83%
    02:00 -4°C° 0 mm 2 mps 755 mmHg 84%
    03:00 -4°C° 0 mm 2 mps 755 mmHg 84%
    04:00 -5°C° 0 mm 2 mps 755 mmHg 85%
    05:00 -5°C° 0 mm 2 mps 754 mmHg 85%
    06:00 -5°C° 0 mm 2 mps 754 mmHg 85%
    07:00 -5°C° 0 mm 2 mps 754 mmHg 85%
    08:00 -5°C° 0 mm 2 mps 754 mmHg 85%
    09:00 -4°C° 0 mm 2 mps 754 mmHg 79%
    10:00 -4°C° 0 mm 2 mps 754 mmHg 73%
    11:00 -3°C° 0 mm 2 mps 754 mmHg 68%
    12:00 0°C° 0 mm 1 mps 754 mmHg 64%
    13:00 +1°C° 0 mm 1 mps 754 mmHg 61%
    14:00 +1°C° 0 mm 1 mps 754 mmHg 57%
    15:00 +1°C° 0 mm 1 mps 754 mmHg 59%
    16:00 +1°C° 0 mm 1 mps 754 mmHg 61%
    17:00 +1°C° 0 mm 1 mps 753 mmHg 63%
    18:00 0°C° 0 mm 1 mps 754 mmHg 67%
    19:00 0°C° 0 mm 1 mps 754 mmHg 70%
    20:00 -1°C° 0 mm 1 mps 754 mmHg 73%
    21:00 -1°C° 0 mm 1 mps 754 mmHg 75%
    22:00 -1°C° 0 mm 1 mps 754 mmHg 77%
    23:00 -1°C° 0 mm 1 mps 754 mmHg 79%

    22 February, Thursday

    Time Temperature Precipitation Wind Pressure Humidity
    00:00 -3°C° 0 mm 2 mps 754 mmHg 80%
    01:00 -4°C° 0 mm 2 mps 754 mmHg 82%
    02:00 -4°C° 0 mm 2 mps 754 mmHg 84%
    03:00 -4°C° 0 mm 2 mps 754 mmHg 85%
    04:00 -4°C° 0 mm 2 mps 754 mmHg 86%
    05:00 -5°C° 0 mm 2 mps 754 mmHg 88%
    06:00 -6°C° 0 mm 3 mps 755 mmHg 88%
    07:00 -6°C° 0 mm 3 mps 755 mmHg 88%
    08:00 -6°C° 0 mm 3 mps 755 mmHg 88%
    09:00 -6°C° 0 mm 3 mps 755 mmHg 85%
    10:00 -5°C° 0 mm 3 mps 755 mmHg 81%
    11:00 -5°C° 0 mm 3 mps 755 mmHg 78%
    12:00 -5°C° 0 mm 3 mps 755 mmHg 75%
    13:00 -4°C° 0 mm 3 mps 755 mmHg 73%
    14:00 -4°C° 0 mm 3 mps 755 mmHg 71%
    15:00 -4°C° 0 mm 3 mps 755 mmHg 72%
    16:00 -4°C° 0 mm 3 mps 755 mmHg 72%
    17:00 -4°C° 0 mm 3 mps 754 mmHg 72%
    18:00 -5°C° 0 mm 3 mps 755 mmHg 74%
    19:00 -5°C° 0 mm 4 mps 755 mmHg 76%
    20:00 -5°C° 0 mm 4 mps 755 mmHg 77%
    21:00 -7°C° 0 mm 4 mps 755 mmHg 78%
    22:00 -7°C° 0 mm 4 mps 755 mmHg 79%
    23:00 -7°C° 0 mm 4 mps 755 mmHg 80%

    23 February, Friday

    Time Temperature Precipitation Wind Pressure Humidity
    00:00 -8°C° 0 mm 4 mps 755 mmHg 80%
    01:00 -8°C° 0 mm 4 mps 755 mmHg 80%
    02:00 -8°C° 0 mm 4 mps 755 mmHg 80%
    03:00 -9°C° 0 mm 4 mps 754 mmHg 79%
    04:00 -9°C° 0 mm 4 mps 754 mmHg 79%
    05:00 -9°C° 0 mm 4 mps 754 mmHg 79%
    06:00 -10°C° 0 mm 4 mps 754 mmHg 78%
    07:00 -10°C° 0 mm 4 mps 754 mmHg 78%
    08:00 -10°C° 0 mm 4 mps 754 mmHg 77%
    09:00 -10°C° 0 mm 4 mps 754 mmHg 74%
    10:00 -10°C° 0 mm 4 mps 754 mmHg 72%
    11:00 -10°C° 0 mm 4 mps 754 mmHg 69%
    12:00 -10°C° 0 mm 4 mps 754 mmHg 66%
    13:00 -9°C° 0 mm 4 mps 754 mmHg 63%
    14:00 -10°C° 0 mm 5 mps 754 mmHg 60%
    15:00 -10°C° 0 mm 5 mps 754 mmHg 59%
    16:00 -10°C° 0 mm 5 mps 754 mmHg 57%
    17:00 -10°C° 0 mm 5 mps 754 mmHg 55%
    18:00 -11°C° 0 mm 5 mps 754 mmHg 57%
    19:00 -11°C° 0 mm 5 mps 754 mmHg 59%
    20:00 -12°C° 0 mm 6 mps 755 mmHg 61%
    21:00 -12°C° 0 mm 6 mps 755 mmHg 62%
    22:00 -12°C° 0 mm 5 mps 755 mmHg 63%
    23:00 -13°C° 0 mm 5 mps 755 mmHg 64%

    24 February, Saturday

    Time Temperature Precipitation Wind Pressure Humidity
    00:00 -13°C° 0 mm 5 mps 755 mmHg 64%
    01:00 -13°C° 0 mm 5 mps 755 mmHg 65%
    02:00 -13°C° 0 mm 5 mps 755 mmHg 65%
    03:00 -14°C° 0 mm 5 mps 755 mmHg 66%
    04:00 -14°C° 0 mm 5 mps 755 mmHg 66%
    05:00 -14°C° 0 mm 5 mps 754 mmHg 67%
    06:00 -14°C° 0 mm 5 mps 754 mmHg 67%
    07:00 -14°C° 0 mm 5 mps 754 mmHg 67%
    08:00 -15°C° 0 mm 6 mps 754 mmHg 67%
    09:00 -15°C° 0 mm 6 mps 754 mmHg 64%
    10:00 -15°C° 0 mm 6 mps 754 mmHg 61%
    11:00 -14°C° 0 mm 6 mps 754 mmHg 58%
    12:00 -14°C° 0 mm 6 mps 754 mmHg 56%
    13:00 -14°C° 0 mm 6 mps 754 mmHg 54%
    14:00 -12°C° 0 mm 6 mps 753 mmHg 53%
    15:00 -12°C° 0 mm 6 mps 753 mmHg 54%
    16:00 -14°C° 0 mm 6 mps 753 mmHg 55%
    17:00 -14°C° 0 mm 6 mps 753 mmHg 56%
    18:00 -14°C° 0 mm 6 mps 753 mmHg 58%
    19:00 -15°C° 0 mm 6 mps 753 mmHg 60%
    20:00 -15°C° 0 mm 6 mps 753 mmHg 62%
    21:00 -15°C° 0.1 mm 6 mps 752 mmHg 65%
    22:00 -15°C° 0.1 mm 6 mps 752 mmHg 67%
    23:00 -15°C° 0.1 mm 6 mps 752 mmHg 69%
    Show more